St. Cloud, MN

2:31 AM CDT on June 23, 2018 (GMT -0500)
Saint Cloud Regional

Weather History for KSTC - October, 2017

Change the Weather History Date:

Tuesday, October 31, 2017

  Actual Average Record
Temperature  
Mean Temperature 29 °F 39 °F  
Max Temperature 34 °F 49 °F 77 °F (1950)
Min Temperature 23 °F 30 °F 10 °F (1951)
Degree Days  
Heating Degree Days 36 26  
Month to date heating degree days 543 599  
Since 1 July heating degree days 722 885  
Cooling Degree Days 0 0  
Month to date cooling degree days 0 2  
Year to date cooling degree days 361 465  
Moisture  
Dew Point 18 °F    
Average Humidity 62    
Maximum Humidity 81    
Minimum Humidity 43    
Precipitation  
Precipitation 0.00 in 0.06 in 1.42 in (1922)
Month to date precipitation 5.08 2.49  
Year to date precipitation 28.94 25.53  
Snow  
Snow 0.00 in 0.10 in 3.10 in (1991)
Month to date snowfall 1.4 0.8  
Since 1 July snowfall 1.4 0.8  
Since 1 September snowfall 1.4 0.8  
Snow Depth 0.00 in    
Sea Level Pressure  
Sea Level Pressure 30.07 in    
Wind  
Wind Speed 9 mph (West)    
Max Wind Speed 23 mph    
Max Gust Speed 28 mph    
Visibility 10 miles    
Events      
T = Trace of Precipitation, MM = Missing Value Source: NWS Daily Summary

Daily Weather History Graph

Daily Weather History Graph

Search for Another Location

Airport or City:

Astronomy

Oct. 31, 2017 Rise Set
Actual Time 7:54 AM CDT 6:04 PM CDT
Civil Twilight 7:23 AM CDT 6:35 PM CDT
Nautical Twilight 6:48 AM CDT 7:09 PM CDT
Astronomical Twilight 6:14 AM CDT 7:44 PM CDT
Moon 4:40 PM CDT (10/31) 3:25 AM CDT (10/31)
Length of Visible Light 11h 11m
Length of Day
10h 09m
Waxing Gibbous, 85% of the Moon is Illuminated
Oct 31
Waxing Gibbous
Nov 4
Full
Nov 10
Last Quarter
Nov 18
New
Nov 26
First Quarter

Hourly Weather History & Observations

Time (CDT) Temp. Windchill Dew Point Humidity Pressure Visibility Wind Dir Wind Speed Gust Speed Precip Events Conditions
12:53 AM 28.0 °F 16.1 °F 21.0 °F 75% 30.06 in 10.0 mi WNW 16.1 mph 23.0 mph N/A   Overcast
1:53 AM 28.9 °F 17.3 °F 21.0 °F 72% 30.08 in 10.0 mi WNW 16.1 mph - N/A   Overcast
2:53 AM 28.0 °F 14.6 °F 19.9 °F 72% 30.09 in 10.0 mi NW 20.7 mph 27.6 mph N/A   Overcast
3:53 AM 27.0 °F 15.2 °F 19.0 °F 72% 30.10 in 10.0 mi NW 15.0 mph - N/A   Overcast
4:53 AM 27.0 °F 16.1 °F 19.0 °F 72% 30.12 in 10.0 mi NW 12.7 mph - N/A   Overcast
5:53 AM 27.0 °F 16.7 °F 19.0 °F 72% 30.12 in 10.0 mi NNW 11.5 mph - N/A   Overcast
6:53 AM 27.0 °F 15.6 °F 19.0 °F 72% 30.13 in 10.0 mi WNW 13.8 mph - N/A   Overcast
7:53 AM 26.1 °F 17.6 °F 18.0 °F 71% 30.14 in 10.0 mi NW 8.1 mph - N/A   Overcast
8:53 AM 27.0 °F 18.0 °F 18.0 °F 69% 30.15 in 10.0 mi West 9.2 mph - N/A   Overcast
9:53 AM 27.0 °F 16.7 °F 18.0 °F 69% 30.17 in 10.0 mi West 11.5 mph - N/A   Overcast
10:53 AM 28.0 °F 20.8 °F 18.0 °F 66% 30.16 in 10.0 mi NW 6.9 mph - N/A   Overcast
11:53 AM 28.9 °F 21.9 °F 19.0 °F 67% 30.15 in 10.0 mi West 6.9 mph - N/A   Overcast
12:53 PM 30.9 °F 24.3 °F 18.0 °F 59% 30.12 in 10.0 mi WSW 6.9 mph - N/A   Mostly Cloudy
1:53 PM 32.0 °F 28.7 °F 16.0 °F 52% 30.09 in 10.0 mi West 3.5 mph - N/A   Clear
2:53 PM 33.1 °F 26.9 °F 14.0 °F 46% 30.06 in 10.0 mi SW 6.9 mph - N/A   Clear
3:53 PM 33.1 °F 24.9 °F 14.0 °F 46% 30.05 in 10.0 mi SSW 10.4 mph - N/A   Clear
4:53 PM 32.0 °F 24.8 °F 14.0 °F 48% 30.03 in 10.0 mi SW 8.1 mph - N/A   Clear
5:53 PM 30.0 °F 23.2 °F 16.0 °F 56% 30.02 in 10.0 mi South 6.9 mph - N/A   Mostly Cloudy
6:53 PM 28.0 °F 21.7 °F 16.0 °F 61% 30.01 in 10.0 mi SE 5.8 mph - N/A   Clear
7:53 PM 27.0 °F 19.5 °F 17.1 °F 66% 29.99 in 10.0 mi SE 6.9 mph - N/A   Clear
8:53 PM 25.0 °F 17.1 °F 18.0 °F 75% 29.98 in 10.0 mi SE 6.9 mph - N/A   Mostly Cloudy
10:53 PM 25.0 °F 16.3 °F 18.0 °F 75% 29.95 in 10.0 mi SE 8.1 mph - N/A   Clear
11:53 PM 24.1 °F 16.0 °F 19.0 °F 81% 29.94 in 10.0 mi SE 6.9 mph - N/A   Clear